owner,sensor,date,latitude,longitude,vertical_datum,sea_water_practical_salinity,qcFlag 
NERRS,ioos:station:NOAA.NERRS:marscwq:1,2014-11-01T01:30:00Z,27.8383,-97.0503,6.13,36.1,1111122 
NERRS,ioos:station:NOAA.NERRS:marscwq:1,2014-11-01T03:30:00Z,27.8383,-97.0503,6.19,35.8,1111122 
NERRS,ioos:station:NOAA.NERRS:marscwq:1,2014-11-01T04:30:00Z,27.8383,-97.0503,6.22,35.8,1111122 
NERRS,ioos:station:NOAA.NERRS:marscwq:1,2014-11-01T05:30:00Z,27.8383,-97.0503,6.22,35.8,1111122 
NERRS,ioos:station:NOAA.NERRS:marscwq:1,2014-11-01T07:00:00Z,27.8383,-97.0503,6.18,35.7,1111122 
NERRS,ioos:station:NOAA.NERRS:marscwq:1,2014-11-01T08:30:00Z,27.8383,-97.0503,6.2,34.6,1111122 
NERRS,ioos:station:NOAA.NERRS:marscwq:1,2014-11-01T09:30:00Z,27.8383,-97.0503,6.15,35.7,1111122 
NERRS,ioos:station:NOAA.NERRS:marscwq:1,2014-11-01T11:30:00Z,27.8383,-97.0503,6.13,34.9,1111122 
NERRS,ioos:station:NOAA.NERRS:marscwq:1,2014-11-01T12:30:00Z,27.8383,-97.0503,6.16,34.3,1111122 
NERRS,ioos:station:NOAA.NERRS:marscwq:1,2014-11-01T13:30:00Z,27.8383,-97.0503,6.19,34.6,1111122 
NERRS,ioos:station:NOAA.NERRS:marscwq:1,2014-11-01T14:30:00Z,27.8383,-97.0503,6.2,34.6,1111122 
NERRS,ioos:station:NOAA.NERRS:marscwq:1,2014-11-01T15:30:00Z,27.8383,-97.0503,6.2,34.6,1111122 
NERRS,ioos:station:NOAA.NERRS:marscwq:1,2014-11-01T17:30:00Z,27.8383,-97.0503,6.15,34.6,1111122 
NERRS,ioos:station:NOAA.NERRS:marscwq:1,2014-11-01T18:30:00Z,27.8383,-97.0503,6.12,34.8,1111122 
NERRS,ioos:station:NOAA.NERRS:marscwq:1,2014-11-01T19:30:00Z,27.8383,-97.0503,6.03,34.6,1111122 
NERRS,ioos:station:NOAA.NERRS:marscwq:1,2014-11-01T20:30:00Z,27.8383,-97.0503,6.03,34.6,1111122 
NERRS,ioos:station:NOAA.NERRS:marscwq:1,2014-11-01T21:30:00Z,27.8383,-97.0503,6.01,34.7,1111122 
NERRS,ioos:station:NOAA.NERRS:marscwq:1,2014-11-01T22:00:00Z,27.8383,-97.0503,6.01,34.7,1111122 
NERRS,ioos:station:NOAA.NERRS:marscwq:1,2014-11-01T23:30:00Z,27.8383,-97.0503,6.01,35.1,1111122 
NERRS,ioos:station:NOAA.NERRS:marscwq:1,2014-11-02T01:30:00Z,27.8383,-97.0503,6.1,36.2,1111122 
NERRS,ioos:station:NOAA.NERRS:marscwq:1,2014-11-02T02:30:00Z,27.8383,-97.0503,6.15,36.2,1111122 
NERRS,ioos:station:NOAA.NERRS:marscwq:1,2014-11-02T03:30:00Z,27.8383,-97.0503,6.18,35.0,1111122 
NERRS,ioos:station:NOAA.NERRS:marscwq:1,2014-11-02T04:30:00Z,27.8383,-97.0503,6.19,34.7,1111122 
NERRS,ioos:station:NOAA.NERRS:marscwq:1,2014-11-02T05:30:00Z,27.8383,-97.0503,6.22,34.6,1111122 
NERRS,ioos:station:NOAA.NERRS:marscwq:1,2014-11-02T07:00:00Z,27.8383,-97.0503,6.15,35.6,1111122 
NERRS,ioos:station:NOAA.NERRS:marscwq:1,2014-11-02T08:30:00Z,27.8383,-97.0503,6.16,35.6,1111122 
NERRS,ioos:station:NOAA.NERRS:marscwq:1,2014-11-02T09:30:00Z,27.8383,-97.0503,6.13,34.9,1111122 
NERRS,ioos:station:NOAA.NERRS:marscwq:1,2014-11-02T10:30:00Z,27.8383,-97.0503,6.12,35.6,1111122 
NERRS,ioos:station:NOAA.NERRS:marscwq:1,2014-11-02T11:30:00Z,27.8383,-97.0503,6.1,34.1,1111122 
NERRS,ioos:station:NOAA.NERRS:marscwq:1,2014-11-02T12:30:00Z,27.8383,-97.0503,6.11,34.4,1111122 
NERRS,ioos:station:NOAA.NERRS:marscwq:1,2014-11-02T13:30:00Z,27.8383,-97.0503,6.13,34.3,1111122 
NERRS,ioos:station:NOAA.NERRS:marscwq:1,2014-11-02T14:30:00Z,27.8383,-97.0503,6.15,34.6,1111122 
NERRS,ioos:station:NOAA.NERRS:marscwq:1,2014-11-02T15:30:00Z,27.8383,-97.0503,6.18,34.6,1111122 
NERRS,ioos:station:NOAA.NERRS:marscwq:1,2014-11-02T16:30:00Z,27.8383,-97.0503,6.21,34.5,1111122 
NERRS,ioos:station:NOAA.NERRS:marscwq:1,2014-11-02T17:30:00Z,27.8383,-97.0503,6.21,34.3,1111122 
NERRS,ioos:station:NOAA.NERRS:marscwq:1,2014-11-02T18:30:00Z,27.8383,-97.0503,6.16,34.6,1111122 
NERRS,ioos:station:NOAA.NERRS:marscwq:1,2014-11-02T19:30:00Z,27.8383,-97.0503,6.15,34.5,1111122 
NERRS,ioos:station:NOAA.NERRS:marscwq:1,2014-11-02T20:30:00Z,27.8383,-97.0503,6.07,34.6,1111122 
NERRS,ioos:station:NOAA.NERRS:marscwq:1,2014-11-02T22:30:00Z,27.8383,-97.0503,6.05,34.4,1111122 
NERRS,ioos:station:NOAA.NERRS:marscwq:1,2014-11-02T23:30:00Z,27.8383,-97.0503,6.01,34.4,1111122 
NERRS,ioos:station:NOAA.NERRS:marscwq:1,2014-11-03T00:30:00Z,27.8383,-97.0503,6.02,35.8,1111122 
NERRS,ioos:station:NOAA.NERRS:marscwq:1,2014-11-03T01:30:00Z,27.8383,-97.0503,6.04,35.9,1111122 
NERRS,ioos:station:NOAA.NERRS:marscwq:1,2014-11-03T04:30:00Z,27.8383,-97.0503,6.16,36.0,1111122 
NERRS,ioos:station:NOAA.NERRS:marscwq:1,2014-11-03T05:30:00Z,27.8383,-97.0503,6.15,34.5,1111122 
NERRS,ioos:station:NOAA.NERRS:marscwq:1,2014-11-03T06:30:00Z,27.8383,-97.0503,6.14,35.8,1111122 
NERRS,ioos:station:NOAA.NERRS:marscwq:1,2014-11-03T07:30:00Z,27.8383,-97.0503,6.14,35.7,1111122 
NERRS,ioos:station:NOAA.NERRS:marscwq:1,2014-11-03T08:30:00Z,27.8383,-97.0503,6.04,35.7,1111122 
NERRS,ioos:station:NOAA.NERRS:marscwq:1,2014-11-03T09:30:00Z,27.8383,-97.0503,6.06,35.7,1111122 
NERRS,ioos:station:NOAA.NERRS:marscwq:1,2014-11-03T10:30:00Z,27.8383,-97.0503,6.01,34.3,1111122 
NERRS,ioos:station:NOAA.NERRS:marscwq:1,2014-11-03T12:00:00Z,27.8383,-97.0503,5.97,35.0,1111122 
NERRS,ioos:station:NOAA.NERRS:marscwq:1,2014-11-03T13:30:00Z,27.8383,-97.0503,6.05,34.8,1111122 
NERRS,ioos:station:NOAA.NERRS:marscwq:1,2014-11-03T14:30:00Z,27.8383,-97.0503,6.04,34.9,1111122 
NERRS,ioos:station:NOAA.NERRS:marscwq:1,2014-11-03T16:30:00Z,27.8383,-97.0503,6.1,35.3,1111122 
NERRS,ioos:station:NOAA.NERRS:marscwq:1,2014-11-03T17:30:00Z,27.8383,-97.0503,6.12,35.1,1111122 
NERRS,ioos:station:NOAA.NERRS:marscwq:1,2014-11-03T18:30:00Z,27.8383,-97.0503,6.1,34.9,1111122 
NERRS,ioos:station:NOAA.NERRS:marscwq:1,2014-11-03T21:30:00Z,27.8383,-97.0503,6.03,34.5,1111122 
NERRS,ioos:station:NOAA.NERRS:marscwq:1,2014-11-03T23:00:00Z,27.8383,-97.0503,6.01,34.6,1111122 
NERRS,ioos:station:NOAA.NERRS:marscwq:1,2014-11-03T23:30:00Z,27.8383,-97.0503,6.01,34.4,1111122 
NERRS,ioos:station:NOAA.NERRS:marscwq:1,2014-11-04T01:30:00Z,27.8383,-97.0503,6.03,35.8,1111122 
NERRS,ioos:station:NOAA.NERRS:marscwq:1,2014-11-04T02:30:00Z,27.8383,-97.0503,6.07,36.1,1111122 
NERRS,ioos:station:NOAA.NERRS:marscwq:1,2014-11-04T03:30:00Z,27.8383,-97.0503,6.03,36.6,1111122 
NERRS,ioos:station:NOAA.NERRS:marscwq:1,2014-11-04T06:30:00Z,27.8383,-97.0503,6.13,36.1,1111122 
NERRS,ioos:station:NOAA.NERRS:marscwq:1,2014-11-04T07:30:00Z,27.8383,-97.0503,6.06,36.0,1111122 
NERRS,ioos:station:NOAA.NERRS:marscwq:1,2014-11-04T08:30:00Z,27.8383,-97.0503,6.02,35.9,1111122 
NERRS,ioos:station:NOAA.NERRS:marscwq:1,2014-11-04T09:30:00Z,27.8383,-97.0503,5.97,35.8,1111122 
NERRS,ioos:station:NOAA.NERRS:marscwq:1,2014-11-04T12:30:00Z,27.8383,-97.0503,5.89,35.2,1111122 
NERRS,ioos:station:NOAA.NERRS:marscwq:1,2014-11-04T14:30:00Z,27.8383,-97.0503,5.93,35.2,1111122 
NERRS,ioos:station:NOAA.NERRS:marscwq:1,2014-11-04T15:30:00Z,27.8383,-97.0503,5.99,35.4,1111122 
NERRS,ioos:station:NOAA.NERRS:marscwq:1,2014-11-04T17:30:00Z,27.8383,-97.0503,6.13,35.2,1111122 
NERRS,ioos:station:NOAA.NERRS:marscwq:1,2014-11-04T18:30:00Z,27.8383,-97.0503,6.1,35.2,1111122 
NERRS,ioos:station:NOAA.NERRS:marscwq:1,2014-11-04T20:30:00Z,27.8383,-97.0503,6.11,35.8,1111122 
NERRS,ioos:station:NOAA.NERRS:marscwq:1,2014-11-04T21:30:00Z,27.8383,-97.0503,6.08,34.7,1111122 
NERRS,ioos:station:NOAA.NERRS:marscwq:1,2014-11-04T23:00:00Z,27.8383,-97.0503,6.08,35.8,1111122 
NERRS,ioos:station:NOAA.NERRS:marscwq:1,2014-11-04T23:30:00Z,27.8383,-97.0503,6.06,35.7,1111122 
NERRS,ioos:station:NOAA.NERRS:marscwq:1,2014-11-05T00:30:00Z,27.8383,-97.0503,6.07,35.8,1111122 
NERRS,ioos:station:NOAA.NERRS:marscwq:1,2014-11-05T01:30:00Z,27.8383,-97.0503,6.02,35.8,1111122 
NERRS,ioos:station:NOAA.NERRS:marscwq:1,2014-11-05T02:30:00Z,27.8383,-97.0503,6.08,35.8,1111122 
NERRS,ioos:station:NOAA.NERRS:marscwq:1,2014-11-05T03:30:00Z,27.8383,-97.0503,6.06,35.8,1111122 
NERRS,ioos:station:NOAA.NERRS:marscwq:1,2014-11-05T04:30:00Z,27.8383,-97.0503,6.07,35.8,1111122 
NERRS,ioos:station:NOAA.NERRS:marscwq:1,2014-11-05T06:30:00Z,27.8383,-97.0503,6.06,35.8,1111122 
NERRS,ioos:station:NOAA.NERRS:marscwq:1,2014-11-05T07:30:00Z,27.8383,-97.0503,6.03,35.8,1111122 
NERRS,ioos:station:NOAA.NERRS:marscwq:1,2014-11-05T08:30:00Z,27.8383,-97.0503,6.09,35.8,1111122 
NERRS,ioos:station:NOAA.NERRS:marscwq:1,2014-11-05T09:30:00Z,27.8383,-97.0503,5.93,34.5,1111122 
NERRS,ioos:station:NOAA.NERRS:marscwq:1,2014-11-05T11:30:00Z,27.8383,-97.0503,5.82,34.8,1111122 
NERRS,ioos:station:NOAA.NERRS:marscwq:1,2014-11-05T12:30:00Z,27.8383,-97.0503,5.82,36.3,1111122 
NERRS,ioos:station:NOAA.NERRS:marscwq:1,2014-11-05T13:30:00Z,27.8383,-97.0503,5.78,36.4,1111122 
NERRS,ioos:station:NOAA.NERRS:marscwq:1,2014-11-05T14:30:00Z,27.8383,-97.0503,5.76,36.6,1111122 
NERRS,ioos:station:NOAA.NERRS:marscwq:1,2014-11-05T16:30:00Z,27.8383,-97.0503,6.02,36.5,1111122 
NERRS,ioos:station:NOAA.NERRS:marscwq:1,2014-11-05T17:30:00Z,27.8383,-97.0503,6.0,36.7,1111122 
NERRS,ioos:station:NOAA.NERRS:marscwq:1,2014-11-05T20:30:00Z,27.8383,-97.0503,6.1,34.6,1111122 
NERRS,ioos:station:NOAA.NERRS:marscwq:1,2014-11-05T21:30:00Z,27.8383,-97.0503,6.13,34.7,1111122 
NERRS,ioos:station:NOAA.NERRS:marscwq:1,2014-11-05T22:30:00Z,27.8383,-97.0503,6.14,34.6,1111122 
NERRS,ioos:station:NOAA.NERRS:marscwq:1,2014-11-06T00:30:00Z,27.8383,-97.0503,6.09,35.8,1111122 
NERRS,ioos:station:NOAA.NERRS:marscwq:1,2014-11-06T01:30:00Z,27.8383,-97.0503,6.1,35.7,1111122 
NERRS,ioos:station:NOAA.NERRS:marscwq:1,2014-11-06T02:30:00Z,27.8383,-97.0503,6.07,35.7,1111122 
NERRS,ioos:station:NOAA.NERRS:marscwq:1,2014-11-06T04:30:00Z,27.8383,-97.0503,6.06,35.6,1111122 
NERRS,ioos:station:NOAA.NERRS:marscwq:1,2014-11-06T05:30:00Z,27.8383,-97.0503,6.15,35.7,1111122 
NERRS,ioos:station:NOAA.NERRS:marscwq:1,2014-11-06T06:30:00Z,27.8383,-97.0503,6.13,35.8,1111122 
NERRS,ioos:station:NOAA.NERRS:marscwq:1,2014-11-06T07:30:00Z,27.8383,-97.0503,6.08,35.7,1111122 
NERRS,ioos:station:NOAA.NERRS:marscwq:1,2014-11-06T09:00:00Z,27.8383,-97.0503,6.04,35.9,1111122 
NERRS,ioos:station:NOAA.NERRS:marscwq:1,2014-11-06T09:30:00Z,27.8383,-97.0503,6.03,35.9,1111122 
NERRS,ioos:station:NOAA.NERRS:marscwq:1,2014-11-06T10:30:00Z,27.8383,-97.0503,5.91,35.9,1111122 
NERRS,ioos:station:NOAA.NERRS:marscwq:1,2014-11-06T11:30:00Z,27.8383,-97.0503,5.87,35.3,1111122 
NERRS,ioos:station:NOAA.NERRS:marscwq:1,2014-11-06T12:30:00Z,27.8383,-97.0503,5.8,35.7,1111122 
NERRS,ioos:station:NOAA.NERRS:marscwq:1,2014-11-06T13:30:00Z,27.8383,-97.0503,5.85,35.8,1111122 
NERRS,ioos:station:NOAA.NERRS:marscwq:1,2014-11-06T14:30:00Z,27.8383,-97.0503,5.87,34.8,1111122 
NERRS,ioos:station:NOAA.NERRS:marscwq:1,2014-11-06T15:30:00Z,27.8383,-97.0503,5.92,35.1,1111122 
NERRS,ioos:station:NOAA.NERRS:marscwq:1,2014-11-06T20:30:00Z,27.8383,-97.0503,6.22,33.0,1111122 
NERRS,ioos:station:NOAA.NERRS:marscwq:1,2014-11-06T21:30:00Z,27.8383,-97.0503,6.23,33.6,1111122 
NERRS,ioos:station:NOAA.NERRS:marscwq:1,2014-11-06T23:00:00Z,27.8383,-97.0503,6.23,34.1,1111122 
NERRS,ioos:station:NOAA.NERRS:marscwq:1,2014-11-06T23:30:00Z,27.8383,-97.0503,6.21,35.1,1111122 
NERRS,ioos:station:NOAA.NERRS:marscwq:1,2014-11-07T00:30:00Z,27.8383,-97.0503,6.2,35.1,1111122 
NERRS,ioos:station:NOAA.NERRS:marscwq:1,2014-11-07T01:30:00Z,27.8383,-97.0503,6.16,35.1,1111122 
NERRS,ioos:station:NOAA.NERRS:marscwq:1,2014-11-07T02:30:00Z,27.8383,-97.0503,6.18,35.0,1111122 
NERRS,ioos:station:NOAA.NERRS:marscwq:1,2014-11-07T03:30:00Z,27.8383,-97.0503,6.16,35.0,1111122 
NERRS,ioos:station:NOAA.NERRS:marscwq:1,2014-11-07T04:30:00Z,27.8383,-97.0503,6.13,34.9,1111122 
NERRS,ioos:station:NOAA.NERRS:marscwq:1,2014-11-07T05:00:00Z,27.8383,-97.0503,6.15,34.9,1111122 
NERRS,ioos:station:NOAA.NERRS:marscwq:1,2014-11-07T06:30:00Z,27.8383,-97.0503,6.15,34.2,1111122 
NERRS,ioos:station:NOAA.NERRS:marscwq:1,2014-11-07T07:30:00Z,27.8383,-97.0503,6.13,34.0,1111122 
NERRS,ioos:station:NOAA.NERRS:marscwq:1,2014-11-07T08:30:00Z,27.8383,-97.0503,6.15,35.0,1111122 
NERRS,ioos:station:NOAA.NERRS:marscwq:1,2014-11-07T09:30:00Z,27.8383,-97.0503,6.08,35.0,1111122 
NERRS,ioos:station:NOAA.NERRS:marscwq:1,2014-11-07T10:30:00Z,27.8383,-97.0503,5.97,35.0,1111122 
NERRS,ioos:station:NOAA.NERRS:marscwq:1,2014-11-07T11:30:00Z,27.8383,-97.0503,5.97,35.1,1111122 
NERRS,ioos:station:NOAA.NERRS:marscwq:1,2014-11-07T12:30:00Z,27.8383,-97.0503,5.88,35.1,1111122 
NERRS,ioos:station:NOAA.NERRS:marscwq:1,2014-11-07T13:30:00Z,27.8383,-97.0503,5.84,35.5,1111122 
NERRS,ioos:station:NOAA.NERRS:marscwq:1,2014-11-07T14:30:00Z,27.8383,-97.0503,5.87,34.6,1111122 
NERRS,ioos:station:NOAA.NERRS:marscwq:1,2014-11-07T15:30:00Z,27.8383,-97.0503,5.82,34.8,1111122 
NERRS,ioos:station:NOAA.NERRS:marscwq:1,2014-11-07T16:30:00Z,27.8383,-97.0503,5.82,34.7,1111122 
NERRS,ioos:station:NOAA.NERRS:marscwq:1,2014-11-07T17:30:00Z,27.8383,-97.0503,5.9,34.7,1111122 
NERRS,ioos:station:NOAA.NERRS:marscwq:1,2014-11-07T18:30:00Z,27.8383,-97.0503,6.06,35.9,1111122 
NERRS,ioos:station:NOAA.NERRS:marscwq:1,2014-11-07T19:30:00Z,27.8383,-97.0503,6.12,35.2,1111122 
NERRS,ioos:station:NOAA.NERRS:marscwq:1,2014-11-07T20:30:00Z,27.8383,-97.0503,6.19,33.2,1111122 
NERRS,ioos:station:NOAA.NERRS:marscwq:1,2014-11-07T21:30:00Z,27.8383,-97.0503,6.22,32.4,1111122 
NERRS,ioos:station:NOAA.NERRS:marscwq:1,2014-11-07T22:30:00Z,27.8383,-97.0503,6.23,32.9,1111122 
NERRS,ioos:station:NOAA.NERRS:marscwq:1,2014-11-07T23:30:00Z,27.8383,-97.0503,6.23,34.4,1111122 
NERRS,ioos:station:NOAA.NERRS:marscwq:1,2014-11-08T00:30:00Z,27.8383,-97.0503,6.22,33.3,1111122 
NERRS,ioos:station:NOAA.NERRS:marscwq:1,2014-11-08T01:30:00Z,27.8383,-97.0503,6.21,32.9,1111122 
NERRS,ioos:station:NOAA.NERRS:marscwq:1,2014-11-08T02:30:00Z,27.8383,-97.0503,6.21,34.4,1111122 
NERRS,ioos:station:NOAA.NERRS:marscwq:1,2014-11-08T03:30:00Z,27.8383,-97.0503,6.2,34.4,1111122 
NERRS,ioos:station:NOAA.NERRS:marscwq:1,2014-11-08T04:30:00Z,27.8383,-97.0503,6.21,34.3,1111122 
NERRS,ioos:station:NOAA.NERRS:marscwq:1,2014-11-08T05:30:00Z,27.8383,-97.0503,6.21,34.2,1111122 
NERRS,ioos:station:NOAA.NERRS:marscwq:1,2014-11-08T06:30:00Z,27.8383,-97.0503,6.12,34.3,1111122 
NERRS,ioos:station:NOAA.NERRS:marscwq:1,2014-11-08T07:30:00Z,27.8383,-97.0503,6.11,34.3,1111122 
NERRS,ioos:station:NOAA.NERRS:marscwq:1,2014-11-08T08:30:00Z,27.8383,-97.0503,6.14,34.3,1111122 
NERRS,ioos:station:NOAA.NERRS:marscwq:1,2014-11-08T09:30:00Z,27.8383,-97.0503,6.1,34.3,1111122 
NERRS,ioos:station:NOAA.NERRS:marscwq:1,2014-11-08T10:30:00Z,27.8383,-97.0503,5.97,34.3,1111122 
NERRS,ioos:station:NOAA.NERRS:marscwq:1,2014-11-08T11:30:00Z,27.8383,-97.0503,5.95,33.0,1111122 
NERRS,ioos:station:NOAA.NERRS:marscwq:1,2014-11-08T12:30:00Z,27.8383,-97.0503,5.8,33.3,1111122 
NERRS,ioos:station:NOAA.NERRS:marscwq:1,2014-11-08T13:30:00Z,27.8383,-97.0503,5.76,34.5,1111122 
NERRS,ioos:station:NOAA.NERRS:marscwq:1,2014-11-08T14:30:00Z,27.8383,-97.0503,5.79,33.9,1111122 
NERRS,ioos:station:NOAA.NERRS:marscwq:1,2014-11-08T15:30:00Z,27.8383,-97.0503,5.68,34.0,1111122 
NERRS,ioos:station:NOAA.NERRS:marscwq:1,2014-11-08T16:30:00Z,27.8383,-97.0503,5.77,34.3,1111122 
NERRS,ioos:station:NOAA.NERRS:marscwq:1,2014-11-08T17:30:00Z,27.8383,-97.0503,5.8,35.2,1111122 
NERRS,ioos:station:NOAA.NERRS:marscwq:1,2014-11-08T18:30:00Z,27.8383,-97.0503,5.89,35.4,1111122 
NERRS,ioos:station:NOAA.NERRS:marscwq:1,2014-11-08T19:30:00Z,27.8383,-97.0503,5.99,35.2,1111122 
NERRS,ioos:station:NOAA.NERRS:marscwq:1,2014-11-08T20:30:00Z,27.8383,-97.0503,6.1,34.3,1111122 
NERRS,ioos:station:NOAA.NERRS:marscwq:1,2014-11-08T21:30:00Z,27.8383,-97.0503,6.15,33.9,1111122 
NERRS,ioos:station:NOAA.NERRS:marscwq:1,2014-11-08T22:30:00Z,27.8383,-97.0503,6.17,33.1,1111122 
NERRS,ioos:station:NOAA.NERRS:marscwq:1,2014-11-08T23:30:00Z,27.8383,-97.0503,6.17,33.6,1111122 
NERRS,ioos:station:NOAA.NERRS:marscwq:1,2014-11-09T00:30:00Z,27.8383,-97.0503,6.14,34.2,1111122 
NERRS,ioos:station:NOAA.NERRS:marscwq:1,2014-11-09T01:30:00Z,27.8383,-97.0503,6.18,34.1,1111122 
NERRS,ioos:station:NOAA.NERRS:marscwq:1,2014-11-09T03:30:00Z,27.8383,-97.0503,6.16,34.0,1111122 
NERRS,ioos:station:NOAA.NERRS:marscwq:1,2014-11-09T04:30:00Z,27.8383,-97.0503,6.16,32.4,1111122 
NERRS,ioos:station:NOAA.NERRS:marscwq:1,2014-11-09T05:30:00Z,27.8383,-97.0503,6.1,34.0,1111122 
NERRS,ioos:station:NOAA.NERRS:marscwq:1,2014-11-09T06:30:00Z,27.8383,-97.0503,6.11,33.9,1111122 
NERRS,ioos:station:NOAA.NERRS:marscwq:1,2014-11-09T07:30:00Z,27.8383,-97.0503,6.1,33.0,1111122 
NERRS,ioos:station:NOAA.NERRS:marscwq:1,2014-11-09T08:30:00Z,27.8383,-97.0503,6.13,33.9,1111122 
NERRS,ioos:station:NOAA.NERRS:marscwq:1,2014-11-09T09:30:00Z,27.8383,-97.0503,6.09,33.3,1111122 
NERRS,ioos:station:NOAA.NERRS:marscwq:1,2014-11-09T10:30:00Z,27.8383,-97.0503,6.03,34.0,1111122 
NERRS,ioos:station:NOAA.NERRS:marscwq:1,2014-11-09T11:30:00Z,27.8383,-97.0503,5.96,33.1,1111122 
NERRS,ioos:station:NOAA.NERRS:marscwq:1,2014-11-09T12:30:00Z,27.8383,-97.0503,5.87,34.0,1111122 
NERRS,ioos:station:NOAA.NERRS:marscwq:1,2014-11-09T13:30:00Z,27.8383,-97.0503,5.81,33.2,1111122 
NERRS,ioos:station:NOAA.NERRS:marscwq:1,2014-11-09T14:30:00Z,27.8383,-97.0503,5.77,33.9,1111122 
NERRS,ioos:station:NOAA.NERRS:marscwq:1,2014-11-09T15:30:00Z,27.8383,-97.0503,5.72,33.9,1111122 
NERRS,ioos:station:NOAA.NERRS:marscwq:1,2014-11-09T16:30:00Z,27.8383,-97.0503,5.74,34.2,1111122 
NERRS,ioos:station:NOAA.NERRS:marscwq:1,2014-11-09T17:30:00Z,27.8383,-97.0503,5.74,34.6,1111122 
NERRS,ioos:station:NOAA.NERRS:marscwq:1,2014-11-09T18:30:00Z,27.8383,-97.0503,5.82,34.5,1111122 
NERRS,ioos:station:NOAA.NERRS:marscwq:1,2014-11-09T19:30:00Z,27.8383,-97.0503,5.92,35.6,1111122 
NERRS,ioos:station:NOAA.NERRS:marscwq:1,2014-11-09T20:30:00Z,27.8383,-97.0503,6.0,35.6,1111122 
NERRS,ioos:station:NOAA.NERRS:marscwq:1,2014-11-09T21:30:00Z,27.8383,-97.0503,6.04,36.0,1111122 
NERRS,ioos:station:NOAA.NERRS:marscwq:1,2014-11-09T22:30:00Z,27.8383,-97.0503,6.1,33.2,1111122 
NERRS,ioos:station:NOAA.NERRS:marscwq:1,2014-11-09T23:30:00Z,27.8383,-97.0503,6.09,33.2,1111122 
NERRS,ioos:station:NOAA.NERRS:marscwq:1,2014-11-10T00:30:00Z,27.8383,-97.0503,6.12,33.3,1111122 
NERRS,ioos:station:NOAA.NERRS:marscwq:1,2014-11-10T02:30:00Z,27.8383,-97.0503,6.08,33.1,1111122 
NERRS,ioos:station:NOAA.NERRS:marscwq:1,2014-11-10T04:30:00Z,27.8383,-97.0503,6.07,34.1,1111122 
NERRS,ioos:station:NOAA.NERRS:marscwq:1,2014-11-10T05:30:00Z,27.8383,-97.0503,6.14,32.9,1111122 
NERRS,ioos:station:NOAA.NERRS:marscwq:1,2014-11-10T06:30:00Z,27.8383,-97.0503,6.05,34.1,1111122 
NERRS,ioos:station:NOAA.NERRS:marscwq:1,2014-11-10T07:30:00Z,27.8383,-97.0503,6.02,33.9,1111122 
NERRS,ioos:station:NOAA.NERRS:marscwq:1,2014-11-10T08:30:00Z,27.8383,-97.0503,6.04,33.9,1111122 
NERRS,ioos:station:NOAA.NERRS:marscwq:1,2014-11-10T09:30:00Z,27.8383,-97.0503,6.02,33.1,1111122 
NERRS,ioos:station:NOAA.NERRS:marscwq:1,2014-11-10T10:30:00Z,27.8383,-97.0503,5.99,32.8,1111122 
NERRS,ioos:station:NOAA.NERRS:marscwq:1,2014-11-10T11:30:00Z,27.8383,-97.0503,5.91,33.9,1111122 
NERRS,ioos:station:NOAA.NERRS:marscwq:1,2014-11-10T12:30:00Z,27.8383,-97.0503,5.84,33.0,1111122 
NERRS,ioos:station:NOAA.NERRS:marscwq:1,2014-11-10T13:30:00Z,27.8383,-97.0503,5.77,32.6,1111122 
NERRS,ioos:station:NOAA.NERRS:marscwq:1,2014-11-10T15:30:00Z,27.8383,-97.0503,5.67,33.4,1111122 
NERRS,ioos:station:NOAA.NERRS:marscwq:1,2014-11-10T16:30:00Z,27.8383,-97.0503,5.67,34.2,1111122 
NERRS,ioos:station:NOAA.NERRS:marscwq:1,2014-11-10T17:30:00Z,27.8383,-97.0503,5.67,33.8,1111122 
NERRS,ioos:station:NOAA.NERRS:marscwq:1,2014-11-10T18:30:00Z,27.8383,-97.0503,5.75,34.1,1111122 
NERRS,ioos:station:NOAA.NERRS:marscwq:1,2014-11-10T20:30:00Z,27.8383,-97.0503,5.84,34.6,1111122 
NERRS,ioos:station:NOAA.NERRS:marscwq:1,2014-11-10T21:30:00Z,27.8383,-97.0503,5.93,34.6,1111122 
NERRS,ioos:station:NOAA.NERRS:marscwq:1,2014-11-10T23:30:00Z,27.8383,-97.0503,5.98,33.6,1111122 
NERRS,ioos:station:NOAA.NERRS:marscwq:1,2014-11-11T00:30:00Z,27.8383,-97.0503,6.02,34.6,1111122 
NERRS,ioos:station:NOAA.NERRS:marscwq:1,2014-11-11T01:30:00Z,27.8383,-97.0503,6.04,34.5,1111122 
NERRS,ioos:station:NOAA.NERRS:marscwq:1,2014-11-11T05:30:00Z,27.8383,-97.0503,6.03,34.4,1111122 
NERRS,ioos:station:NOAA.NERRS:marscwq:1,2014-11-11T06:30:00Z,27.8383,-97.0503,5.93,34.3,1111122 
NERRS,ioos:station:NOAA.NERRS:marscwq:1,2014-11-11T07:30:00Z,27.8383,-97.0503,5.99,33.4,1111122 
NERRS,ioos:station:NOAA.NERRS:marscwq:1,2014-11-11T08:30:00Z,27.8383,-97.0503,5.97,33.5,1111122 
NERRS,ioos:station:NOAA.NERRS:marscwq:1,2014-11-11T09:30:00Z,27.8383,-97.0503,5.95,33.5,1111122 
NERRS,ioos:station:NOAA.NERRS:marscwq:1,2014-11-11T10:30:00Z,27.8383,-97.0503,5.93,34.3,1111122 
NERRS,ioos:station:NOAA.NERRS:marscwq:1,2014-11-11T11:30:00Z,27.8383,-97.0503,5.89,34.3,1111122 
NERRS,ioos:station:NOAA.NERRS:marscwq:1,2014-11-11T12:30:00Z,27.8383,-97.0503,5.8,33.5,1111122 
NERRS,ioos:station:NOAA.NERRS:marscwq:1,2014-11-11T13:30:00Z,27.8383,-97.0503,5.83,32.8,1111122 
NERRS,ioos:station:NOAA.NERRS:marscwq:1,2014-11-11T14:30:00Z,27.8383,-97.0503,5.73,34.6,1111122 
NERRS,ioos:station:NOAA.NERRS:marscwq:1,2014-11-11T15:30:00Z,27.8383,-97.0503,5.69,34.7,1111122 
NERRS,ioos:station:NOAA.NERRS:marscwq:1,2014-11-11T17:30:00Z,27.8383,-97.0503,5.6,34.0,1111122 
NERRS,ioos:station:NOAA.NERRS:marscwq:1,2014-11-11T19:30:00Z,27.8383,-97.0503,5.67,34.4,1111122 
NERRS,ioos:station:NOAA.NERRS:marscwq:1,2014-11-11T20:30:00Z,27.8383,-97.0503,5.81,34.1,1111122 
NERRS,ioos:station:NOAA.NERRS:marscwq:1,2014-11-11T21:30:00Z,27.8383,-97.0503,5.85,34.2,1111122 
NERRS,ioos:station:NOAA.NERRS:marscwq:1,2014-11-11T23:00:00Z,27.8383,-97.0503,5.94,35.2,1111122 
NERRS,ioos:station:NOAA.NERRS:marscwq:1,2014-11-11T23:30:00Z,27.8383,-97.0503,6.03,35.2,1111122 
NERRS,ioos:station:NOAA.NERRS:marscwq:1,2014-11-12T00:30:00Z,27.8383,-97.0503,6.03,34.8,1111122 
NERRS,ioos:station:NOAA.NERRS:marscwq:1,2014-11-12T02:30:00Z,27.8383,-97.0503,6.09,33.6,1111122 
NERRS,ioos:station:NOAA.NERRS:marscwq:1,2014-11-12T03:30:00Z,27.8383,-97.0503,6.06,34.2,1111122 
NERRS,ioos:station:NOAA.NERRS:marscwq:1,2014-11-12T23:30:00Z,27.8383,-97.0503,5.95,35.1,1111122 
NERRS,ioos:station:NOAA.NERRS:marscwq:1,2014-11-13T00:30:00Z,27.8383,-97.0503,6.05,35.2,1111122 
NERRS,ioos:station:NOAA.NERRS:marscwq:1,2014-11-13T01:30:00Z,27.8383,-97.0503,6.08,33.4,1111122 
NERRS,ioos:station:NOAA.NERRS:marscwq:1,2014-11-13T02:30:00Z,27.8383,-97.0503,6.12,33.3,1111122 
NERRS,ioos:station:NOAA.NERRS:marscwq:1,2014-11-13T03:30:00Z,27.8383,-97.0503,6.1,33.6,1111122 
NERRS,ioos:station:NOAA.NERRS:marscwq:1,2014-11-13T04:30:00Z,27.8383,-97.0503,6.13,33.6,1111122 
NERRS,ioos:station:NOAA.NERRS:marscwq:1,2014-11-13T05:30:00Z,27.8383,-97.0503,6.08,33.6,1111122 
NERRS,ioos:station:NOAA.NERRS:marscwq:1,2014-11-13T06:30:00Z,27.8383,-97.0503,6.08,33.6,1111122 
NERRS,ioos:station:NOAA.NERRS:marscwq:1,2014-11-13T07:30:00Z,27.8383,-97.0503,6.05,33.6,1111122 
NERRS,ioos:station:NOAA.NERRS:marscwq:1,2014-11-13T08:30:00Z,27.8383,-97.0503,6.04,33.6,1111122 
NERRS,ioos:station:NOAA.NERRS:marscwq:1,2014-11-13T09:30:00Z,27.8383,-97.0503,6.05,33.5,1111122 
NERRS,ioos:station:NOAA.NERRS:marscwq:1,2014-11-13T10:30:00Z,27.8383,-97.0503,6.04,33.6,1111122 
NERRS,ioos:station:NOAA.NERRS:marscwq:1,2014-11-13T11:30:00Z,27.8383,-97.0503,6.02,34.2,1111122 
NERRS,ioos:station:NOAA.NERRS:marscwq:1,2014-11-13T12:30:00Z,27.8383,-97.0503,6.02,34.3,1111122 
NERRS,ioos:station:NOAA.NERRS:marscwq:1,2014-11-13T13:30:00Z,27.8383,-97.0503,5.99,34.7,1111122 
NERRS,ioos:station:NOAA.NERRS:marscwq:1,2014-11-13T14:30:00Z,27.8383,-97.0503,5.97,34.4,1111122 
NERRS,ioos:station:NOAA.NERRS:marscwq:1,2014-11-13T15:30:00Z,27.8383,-97.0503,5.96,34.4,1111122 
NERRS,ioos:station:NOAA.NERRS:marscwq:1,2014-11-13T16:30:00Z,27.8383,-97.0503,5.92,34.5,1111122 
NERRS,ioos:station:NOAA.NERRS:marscwq:1,2014-11-13T17:30:00Z,27.8383,-97.0503,5.8,34.4,1111122 
NERRS,ioos:station:NOAA.NERRS:marscwq:1,2014-11-13T18:30:00Z,27.8383,-97.0503,5.83,34.6,1111122 
NERRS,ioos:station:NOAA.NERRS:marscwq:1,2014-11-13T19:30:00Z,27.8383,-97.0503,5.83,35.1,1111122 
NERRS,ioos:station:NOAA.NERRS:marscwq:1,2014-11-13T20:30:00Z,27.8383,-97.0503,5.79,35.3,1111122 
NERRS,ioos:station:NOAA.NERRS:marscwq:1,2014-11-13T21:30:00Z,27.8383,-97.0503,5.86,35.4,1111122 